Proserpine, Australia

4:37 PM AEST on April 29, 2017 (GMT +1000)
Whitsunday

Weather History for YBPN - March, 2014

Change the Weather History Date:

Wednesday, March 12, 2014

  Actual Average Record
Temperature  
Mean Temperature 78 °F -  
Max Temperature 84 °F - - ()
Min Temperature 69 °F - - ()
Cooling Degree Days 12    
Growing Degree Days 28 (Base 50)    
Moisture  
Dew Point 66 °F    
Average Humidity 71    
Maximum Humidity 88    
Minimum Humidity 43    
Precipitation  
Precipitation 0.00 in - - ()
Sea Level Pressure  
Sea Level Pressure 29.91 in    
Wind  
Wind Speed 11 mph ()    
Max Wind Speed 21 mph    
Max Gust Speed -    
Visibility 6.4 miles    
Events      
T = Trace of Precipitation, MM = Missing Value Source: Averaged Metar Reports

Daily Weather History Graph

Daily Weather History Graph

Search for Another Location

Airport or City:

Trip Planner

Search our weather history database for the weather conditions in past years. The results will help you decide how hot, cold, wet, or windy it might be!

Date:

Astronomy

Mar. 12, 2014 Rise Set
Actual Time 6:07 AM AEST 6:24 PM AEST
Civil Twilight 5:44 AM AEST 6:46 PM AEST
Nautical Twilight 5:19 AM AEST 7:12 PM AEST
Astronomical Twilight 4:53 AM AEST 7:38 PM AEST
Moon 3:19 PM AEST (3/12) 2:07 AM AEST (3/12)
Length of Visible Light 13h 01m
Length of Day
12h 17m
Waxing Gibbous, 81% of the Moon is Illuminated
Mar 12
Waxing Gibbous
Mar 17
Full
Mar 24
Last Quarter
Mar 31
New
Apr 7
First Quarter

Hourly Weather History & Observations

Time (AEST) Temp. Heat Index Dew Point Humidity Pressure Visibility Wind Dir Wind Speed Gust Speed Precip Events Conditions
12:00 AM 72 °F - 67 °F 80% 29.93 in - South 9.2 mph - -  
12:00 AM 71.6 °F - 66.2 °F 83% 29.92 in 6.2 mi South 9.2 mph - N/A   Unknown
1:00 AM 71.6 °F - 66.2 °F 83% 29.89 in 6.2 mi South 10.4 mph - N/A   Scattered Clouds
2:00 AM 71.6 °F - 68.0 °F 88% 29.89 in 6.2 mi South 9.2 mph - N/A   Scattered Clouds
3:00 AM 73 °F - 68 °F 78% 29.88 in - SSE 9.2 mph - -  
3:00 AM 73.4 °F - 68.0 °F 83% 29.86 in 6.2 mi SSE 9.2 mph - N/A   Mostly Cloudy
4:00 AM 73.4 °F - 68.0 °F 83% 29.86 in 6.2 mi South 9.2 mph - N/A   Scattered Clouds
5:00 AM 73.4 °F - 68.0 °F 83% 29.89 in 6.2 mi SSE 10.4 mph - N/A   Overcast
6:00 AM 72 °F - 67 °F 81% 29.91 in - SSE 10.4 mph - -  
6:00 AM 71.6 °F - 68.0 °F 88% 29.89 in 6.2 mi SSE 10.4 mph - N/A   Scattered Clouds
7:00 AM 73.4 °F - 68.0 °F 83% 29.92 in 6.2 mi South 12.7 mph - N/A   Unknown
8:00 AM 77.0 °F - 68.0 °F 74% 29.95 in 6.2 mi SSE 12.7 mph - N/A   Unknown
9:00 AM 80 °F - 68 °F 59% 29.96 in - SE 19.6 mph - -  
9:00 AM 80.6 °F 83.2 °F 68.0 °F 65% 29.95 in 6.2 mi SE 19.6 mph - N/A   Scattered Clouds
10:00 AM 80.6 °F 83.2 °F 68.0 °F 65% 29.95 in 6.2 mi SE 20.7 mph - N/A   Scattered Clouds
11:00 AM 82.4 °F 83.9 °F 64.4 °F 54% 29.95 in 6.2 mi ESE 20.7 mph - N/A   Unknown
12:00 PM 82 °F - 64 °F 44% 29.93 in - ESE 19.6 mph - -  
12:00 PM 82.4 °F 83.9 °F 64.4 °F 54% 29.92 in 6.2 mi ESE 19.6 mph - N/A   Unknown
1:00 PM 84.2 °F 87.3 °F 68.0 °F 58% 29.89 in 6.2 mi ESE 15.0 mph - N/A   Unknown
2:00 PM 84.2 °F 85.6 °F 64.4 °F 51% 29.86 in 6.2 mi ESE 16.1 mph - N/A   Unknown
3:00 PM 82 °F - 63 °F 43% 29.87 in 12 mi ESE 17.3 mph - -   Haze
3:00 PM 82.4 °F 83.9 °F 64.4 °F 54% 29.86 in 6.2 mi ESE 17.3 mph - N/A   Unknown
4:00 PM 80.6 °F 82.3 °F 64.4 °F 58% 29.86 in 6.2 mi East 18.4 mph - N/A   Unknown
5:00 PM 78.8 °F - 62.6 °F 57% 29.86 in 6.2 mi ESE 18.4 mph - N/A   Unknown
6:00 PM 77 °F - 66 °F 60% 29.90 in - ESE 13.8 mph - -  
6:00 PM 77.0 °F - 66.2 °F 69% 29.89 in 6.2 mi ESE 13.8 mph - N/A   Unknown
7:00 PM 75.2 °F - 66.2 °F 73% 29.92 in 6.2 mi ESE 16.1 mph - N/A   Unknown
8:00 PM 75.2 °F - 68.0 °F 78% 29.95 in 6.2 mi SE 10.4 mph - N/A   Unknown
9:00 PM 72 °F - 67 °F 81% 29.97 in - South 5.8 mph - -  
9:00 PM 71.6 °F - 68.0 °F 88% 29.95 in 6.2 mi South 5.8 mph - N/A   Unknown
10:00 PM 73.4 °F - 66.2 °F 78% 29.95 in 6.2 mi South 9.2 mph - N/A   Unknown
11:00 PM 69.8 °F - 66.2 °F 88% 29.95 in 6.2 mi South 5.8 mph - N/A   Unknown